Location: Unspecified
(0.0000°N, 0.0000°E)
Time: 03:31:43
(UTC+00:00)

Vanguard 2 Rocket - Pass Details

Date: 14 December 2017
Orbit: 556 x 3326 km, 32.9° (Epoch: 15 January)

Event Time Altitude Azimuth Distance (km) Brightness Sun altitude
Rises 01:10:15 0° 315° (NW) 7,211 - -60.4°
Reaches altitude 10° 01:15:33 10° 321° (NW) 6,270 - -59.6°
Maximum altitude 01:34:25 46° 29° (NNE) 3,670 - -56.4°
Exits shadow 01:39:44 38° 66° (ENE) 3,687 9.8 -55.5°
Drops below altitude 10° 01:48:19 10° 97° (E) 4,775 10.9 -53.9°
Sets 01:51:38 0° 103° (ESE) 5,446 11.4 -53.3°
